Weather History for MMDO - April, 2013

Change the Weather History Date:

Saturday, April 27, 2013

  Actual Average Record
Temperature  
Mean Temperature 78 °F -  
Max Temperature 92 °F 85 °F 92 °F (2013)
Min Temperature 64 °F 50 °F 35 °F (1997)
Cooling Degree Days 13    
Growing Degree Days 28 (Base 50)    
Moisture  
Dew Point 28 °F    
Average Humidity 16    
Maximum Humidity 28    
Minimum Humidity 7    
Precipitation  
Precipitation 0.00 in - - ()
Sea Level Pressure  
Sea Level Pressure 29.92 in    
Wind  
Wind Speed 5 mph ()    
Max Wind Speed 18 mph    
Max Gust Speed -    
Visibility 13.0 miles    
Events      
Averages and records for this station are not official NWS values.
T = Trace of Precipitation, MM = Missing Value Source: Averaged Metar Reports

Daily Weather History Graph

Daily Weather History Graph

Search for Another Location

Airport or City:

Trip Planner

Search our weather history database for the weather conditions in past years. The results will help you decide how hot, cold, wet, or windy it might be!

Date:

Astronomy

Apr. 27, 2013 Rise Set
Actual Time 7:26 AM CDT 8:25 PM CDT
Civil Twilight 7:02 AM CDT 8:49 PM CDT
Nautical Twilight 6:34 AM CDT 9:17 PM CDT
Astronomical Twilight 6:06 AM CDT 9:45 PM CDT
Moon 10:45 PM CDT (4/27) 8:57 AM CDT (4/27)
Length of Visible Light 13h 46m
Length of Day
12h 59m
Waning Gibbous, 95% of the Moon is Illuminated
Apr 27
Waning Gibbous
May 2
Last Quarter
May 9
New
May 17
First Quarter
May 24
Full

Hourly Weather History & Observations

Time (CDT) Temp. Dew Point Humidity Pressure Visibility Wind Dir Wind Speed Gust Speed Precip Events Conditions
12:50 AM 71 °F 35 °F 16% 29.71 in 6 mi WSW 2.2 mph - -   Mostly Cloudy
2:40 AM 68.0 °F 28.4 °F 23% 30.25 in 10.0 mi SW 8.1 mph - N/A   Mostly Cloudy
3:44 AM 66.2 °F 28.4 °F 24% 29.75 in 10.0 mi SSW 6.9 mph - N/A   Mostly Cloudy
3:50 AM 69 °F 35 °F 18% 29.72 in 6 mi West 2.2 mph - -   Mostly Cloudy
4:42 AM 64.4 °F 30.2 °F 28% 30.21 in 10.0 mi South 6.9 mph - N/A   Overcast
5:44 AM 66.2 °F 30.2 °F 26% 30.24 in 10.0 mi WSW 4.6 mph - N/A   Overcast
6:45 AM 67 °F 31 °F 16% 29.81 in 9 mi West 2.2 mph - -   Overcast
6:49 AM 64.4 °F 30.2 °F 28% 29.78 in 10.0 mi SSW 5.8 mph - N/A   Overcast
7:41 AM 66.2 °F 24.8 °F 21% 30.27 in 14.0 mi West 4.6 mph - N/A   Overcast
8:45 AM 66.2 °F 28.4 °F 24% 30.27 in 14.0 mi SE 5.8 mph - N/A   Overcast
9:47 AM 71.6 °F 32.0 °F 23% 29.79 in 14.0 mi WSW 6.9 mph - N/A   Mostly Cloudy
9:55 AM 72 °F 39 °F 19% 29.82 in 19 mi SSW 2.2 mph - -   Scattered Clouds
10:44 AM 73.4 °F 30.2 °F 20% 30.25 in 14.0 mi WNW 4.6 mph - N/A   Scattered Clouds
11:43 AM 77.0 °F 28.4 °F 17% 30.24 in 14.0 mi NW 4.6 mph - N/A   Scattered Clouds
12:45 PM 80.6 °F 23.0 °F 12% 29.76 in 14.0 mi WNW 8.1 mph - N/A   Partly Cloudy
12:50 PM 85 °F 33 °F 8% 29.76 in 19 mi SSW 2.2 mph - -   Scattered Clouds
1:48 PM 82.4 °F 21.2 °F 10% 30.18 in 14.0 mi Calm Calm - N/A   Mostly Cloudy
2:41 PM 84.2 °F 19.4 °F 9% 30.15 in 14.0 mi Calm Calm - N/A   Mostly Cloudy
3:40 PM 88 °F 34 °F 7% 29.60 in 19 mi West 4.5 mph - -   Mostly Cloudy
3:42 PM 84.2 °F 19.4 °F 9% 29.65 in 14.0 mi Calm Calm - N/A   Mostly Cloudy
4:42 PM 86.0 °F 17.6 °F 8% 30.06 in 14.0 mi WSW 9.2 mph - N/A   Mostly Cloudy
5:43 PM 87.8 °F 17.6 °F 8% 30.04 in 14.0 mi SW 6.9 mph - N/A   Scattered Clouds
6:41 PM 86.0 °F 17.6 °F 8% 29.60 in 14.0 mi West 12.7 mph - N/A   Scattered Clouds
6:50 PM 89 °F 37 °F 9% 29.50 in 19 mi WSW 6.7 mph - -   Partly Cloudy
7:40 PM 84.2 °F 17.6 °F 8% 30.05 in 14.0 mi WSW 12.7 mph - N/A   Partly Cloudy
8:40 PM 78.8 °F 19.4 °F 11% 30.07 in 14.0 mi WSW 18.4 mph - N/A   Partly Cloudy
9:50 PM 76 °F 38 °F 15% 29.52 in 6 mi WSW 8.9 mph - -  
9:52 PM 75.2 °F 24.8 °F 15% 29.85 in 14.0 mi WSW 18.4 mph - N/A   Partly Cloudy